Regional Weather Roundup
Issued by NWS Jackson, KY

Home | Current Version | Previous Version | Graphics & Text | Print | Product List | Glossary On
Versions: 1 2 3 4 5 6 7 8 9 10 11 12 13 14 15 16 17 18 19 20 21 22 23 24 25 26 27
000
ASUS43 KJKL 261410
RWRJKL

EAST KENTUCKY HOURLY WEATHER ROUNDUP
NATIONAL WEATHER SERVICE JACKSON KY
1000 AM EDT FRI AUG 26 2016

NOTE: "FAIR" INDICATES FEW OR NO CLOUDS BELOW 12,000 FEET WITH
NO SIGNIFICANT WEATHER AND/OR OBSTRUCTIONS TO VISIBILITY.

* THESE REPORTS ARE NOT UNDER NWS QUALITY CONTROL AND MAY NOT
  REPORT WEATHER SUCH AS PRECIPITATION AND FOG.

KYZ079-080-083-085-087-088-110-112-115-119-120-261500
...EASTERN KENTUCKY...

CITY           SKY/WX    TMP DP  RH WIND       PRES   REMARKS
JACKSON        SUNNY     78  73  84 CALM      30.19S
LONDON         SUNNY     79  72  79 SE3       30.18S
SOMERSET*      SUNNY     79  75  89 CALM      30.18R
MONTICELLO*    SUNNY    N/A N/A N/A NW9       30.19R
WILLIAMSBURG*  MOSUNNY   73  73 100 CALM      30.18F
MIDDLESBORO*   CLOUDY    72  72 100 CALM      30.21R
HARLAN APT*    CLOUDY    72  68  88 CALM      30.22S
PIKE CO APT*   FOG       72  72 100 CALM      30.20R VSB 1/4
BIG SANDY APT* SUNNY     78  74  87 CALM      30.18S
MOREHEAD APT*  SUNNY     81  73  78 CALM      30.19R
$$

KYZ035-036-041-042-044-050-067-078-099-261500
...CENTRAL KENTUCKY...

CITY           SKY/WX    TMP DP  RH WIND       PRES   REMARKS
MT STERLING*   SUNNY    N/A N/A N/A CALM      30.19R
FLEMING/MASON* SUNNY     79  72  77 CALM      30.18S
DANVILLE*      SUNNY     81  73  78 CALM      30.19R
LEXINGTON      SUNNY     83  71  67 CALM      30.17R
FRANKFORT      SUNNY     82  72  71 CALM      30.15S
LOUISVILLE     PTSUNNY   82  73  74 CALM      30.14S
LEBANON*         N/A     82  73  74 CALM      30.16S
GLASGOW*       MOSUNNY   83  77  81 CALM      30.15R HX  92
BOWLING GREEN  SUNNY     84  74  71 E6        30.14R HX  91
$$

KYZ091>093-OHZ055-061-077-WVZ005-015-034-035-042-261500
...SOUTHERN OHIO/WEST VIRGINIA...

CITY           SKY/WX    TMP DP  RH WIND       PRES   REMARKS
COVINGTON      MOSUNNY   82  74  76 CALM      30.16S
COLUMBUS       MOSUNNY   78  70  76 CALM      30.15R
DAYTON         MOSUNNY   78  72  81 E5        30.17S
WILMINGTON     SUNNY     80  74  81 E3        30.17R
HUNTINGTON     SUNNY     80  73  79 SW3       30.15S
CHARLESTON     MOSUNNY   81  72  74 CALM      30.16S
PINEVILLE*     CLOUDY    73  69  89 MISG      30.27R FOG
BECKLEY        SUNNY     75  69  81 CALM      30.26R
BLUEFIELD      SUNNY     74  68  81 NW3       30.28R
LOGAN CO APT*    N/A     75  75 100 CALM      30.19S
$$

VAZ002-007-008-TNZ017-027-036-066-071-261500
...SOUTHWEST VIRGINIA/EAST TENNESSEE...

CITY           SKY/WX    TMP DP  RH WIND       PRES   REMARKS
WISE*          PTSUNNY   79  70  73 NE3       30.28S
JONESVILLE*      N/A     75  72  88 CALM      30.23R
ABINGDON*      SUNNY     81  73  77 CALM      30.24R
BRISTOL        MOSUNNY   75  71  87 CALM      30.21S
MORRISTOWN*    MOSUNNY   79  72  78 CALM      30.18S
SEVIERVILLE*   SUNNY     79  72  78 CALM      30.17S
KNOXVILLE      MOSUNNY   81  72  74 E3        30.16R
OAK RIDGE      PTSUNNY   78  73  84 E5        30.18S
CROSSVILLE     SUNNY     80  71  74 NE3       30.22R
NASHVILLE      PTSUNNY   83  75  77 CALM      30.14R HX  90
$$

...KEY TO REMARKS...
VSB - VISIBILITY IN MILES
WCI - WIND CHILL INDEX
HX  - HEAT INDEX

$$




USA.gov is the U.S. government's official web portal to all federal, state and local government web resources and services.